User: anonymous   Login
Location: Unspecified
(0.0000°N, 0.0000°E)
Time: 23:27:53
(UTC+01:00)
Language:

Landsat 4 - Orbit

View from above orbital plane
View from above orbital plane
View from above satellite
View from above satellite

Ground track
Ground track

The orbit data is extracted from the following two-line orbital elements,

1 13367U 82072A   16043.39412808  .00003674  00000-0  20263-3 0  9994
2 13367  98.1871 160.4429 0014913  71.9529 328.9625 15.14602410810708
Epoch (UTC): 12 February 2016 09:27:32
Eccentricity: 0.0014913
inclination: 98.1871°
perigee height: 512 km
apogee height: 532 km
right ascension of ascending node: 160.4429°
argument of perigee: 71.9529°
revolutions per day: 15.14602410
mean anomaly at epoch: 328.9625°
orbit number at epoch: 81070

The dashed part of the orbit path shows where the satellite is in the earth's shadow,  

DLR